Regional Weather Roundup
Issued by NWS Green Bay, WI

Home | Current Version | Previous Version | Text Only | Print | Product List | Glossary On
Versions: 1 2 3 4 5 6 7 8 9 10 11 12 13 14 15 16 17 18 19 20 21 22 23 24 25 26 27 28 29 30 31 32 33 34 35 36 37 38 39 40 41 42 43 44 45 46 47 48 49 50
000
ASUS43 KGRB 272011
RWRGRB

NORTH-CENTRAL AND NORTHEAST WISCONSIN REGIONAL WEATHER ROUNDUP
NATIONAL WEATHER SERVICE GREEN BAY WI
300 PM CDT FRI MAY 27 2016

WIZ005-009-010>012-018-019-272100-
NORTH CENTRAL WISCONSIN

CITY           SKY/WX    TMP DP  RH WIND       PRES   REMARKS
IRONWOOD       CLOUDY    64  63  94 NE3       29.85F
MANITOWISH WTR NOT AVBL
ARBOR VITAE    CLOUDY    72  61  68 E6        29.86F
EAGLE RIVER      N/A     72  58  61 E8        29.88S
LAND O LAKES   CLOUDY    73  59  61 E8        29.90F
RHINELANDER    CLOUDY    73  60  63 SE12      29.87F
PHILLIPS       DRIZZLE   68  61  79 NE3       29.83F
ANTIGO         DRIZZLE   67  64  91 E12       29.87F
TOMAHAWK       CLOUDY    71  59  65 SE10G18   29.85F
MERRILL        CLOUDY    72  63  73 SE12      29.85F
$$

WIZ013-073-272100-
NORTHEAST WISCONSIN

CITY           SKY/WX    TMP DP  RH WIND       PRES   REMARKS
IRON MOUNTAIN  CLOUDY    72  60  66 SE13      29.89S
MARINETTE      LGT RAIN  61  61 100 E8        29.89F FOG
OCONTO         CLOUDY   N/A N/A N/A E7        29.87F
$$

WIZ017-030-035>037-045-272100-
CENTRAL WISCONSIN

CITY           SKY/WX    TMP DP  RH WIND       PRES   REMARKS
MEDFORD        LGT RAIN  68  62  79 SE7       29.82F
WAUSAU         CLOUDY    74  58  57 E18G29    29.82S
MOSINEE        PTSUNNY   72  63  73 SE12G17   29.85S
MARSHFIELD     CLOUDY    75  62  64 SE13      29.80F
WISC RAPIDS    CLOUDY    74  61  63 SE12      29.82F
STEVENS POINT  CLOUDY    70  63  78 SE10      29.84S
WAUPACA        RAIN      74  69  85 NE6       29.84F
SHAWANO        CLOUDY    70  66  86 E6        29.87R
CLINTONVILLE   CLOUDY    70  63  78 E6        29.85F
WAUTOMA        LGT RAIN  74  66  76 E6        29.83F
$$

WIZ038-039-048-051-272100-
FOX VALLEY

CITY           SKY/WX    TMP DP  RH WIND       PRES   REMARKS
NWS GREEN BAY  CLOUDY    70  66  87 NE7       29.85F
APPLETON       CLOUDY    72  66  83 E6        29.84F
OSHKOSH        MOSUNNY   72  65  78 E8        29.83F
FOND DU LAC    CLOUDY    74  68  81 NE7       29.83F
$$

WIZ022-050-052-272100-
EAST CENTRAL WISCONSIN

CITY           SKY/WX    TMP DP  RH WIND       PRES   REMARKS
EPHRAIM        RAIN      61  61  99 E3        29.90F VSB 1
STURGEON BAY   NOT AVBL
MANITOWOC      CLOUDY    56  55  97 SE7       29.88F FOG
SHEBOYGAN      CLOUDY    69  64  84 SE10      29.85F HAZE
$$

LMZ563-521-522-541>543-272100-
LAKESHORE

STATION/POSITION TIME  TEMP    WIND        PRES    VSBY  WAVE
                       AIR SEA DIR/SP/G                  HT/PER
                 (UTC) (F)     (DEG/KT/KT) (MB)    (MI)  (FT/S)
SHEBOYGAN LKSHOR 2000   54     200/  3/  4 1011.6F
KEWAUNEE LKSHORE 1900   53     150/  4/  6 1012.1F
ALGOMA MARINA    1902          210/  3/  4   N/A
NORTHPORT PIER   2000   53      80/  1/ 10 1012.2F
N MID LAKE BUOY  1950   50 47  360/  6/  8 1012.6F         0
SISTER BAY LKSHO 1920   63     170/  7/  9   N/A
CHAMBERS ISLAND  1900   59      CALM  /  2 1013.2S
MENOMINEE LKSHOR 1900   56     360/  3/  4 1011.7F
$$




USA.gov is the U.S. government's official web portal to all federal, state and local government web resources and services.